Location: Atherton
(17.2661°S, 145.4859°E)
Time: 22:18:43
(UTC+10:00)

Transit 2A - Pass Details

Date: 18 June 2025
Orbit: 598 x 948 km, 66.7° (Epoch: 19 July)

Event Time Altitude Azimuth Distance (km) Brightness Sun altitude
Rises 12:07:01 0° 309° (NW) 3,387 9.7 49.2°
Reaches altitude 10° 12:09:52 10° 295° (WNW) 2,513 9.0 49.3°
Maximum altitude 12:14:32 24° 243° (WSW) 1,781 8.0 49.3°
Drops below altitude 10° 12:19:27 10° 190° (S) 2,656 8.5 49.3°
Sets 12:22:35 0° 177° (S) 3,625 9.1 49.3°
